| time (UTC) | temp F | wind direction | speed knots | gust knots | rain 1hr in | rain 24hr in | rain mn in | humidity % | barometer mb |
| 20260831141704 | 67 | 78 | 0.0 | 1.7 | 0.00 | 0.00 | 0.00 | 77 | 1020.5 |
| 20260831140204 | 66 | 82 | 0.0 | 0.9 | 0.00 | 0.00 | 0.00 | 80 | 1020.3 |
| 20260831135205 | 65 | 80 | 0.0 | 0.9 | 0.00 | 0.00 | 0.00 | 82 | 1020.4 |
| 20260831134205 | 64 | 80 | 0.9 | 2.6 | 0.00 | 0.00 | 0.00 | 81 | 1020.4 |
| 20260831133704 | 64 | 80 | 0.0 | 1.7 | 0.00 | 0.00 | 0.00 | 83 | 1020.4 |
| 20260831131705 | 61 | 167 | 0.0 | 0.0 | 0.00 | 0.00 | 0.00 | 90 | 1020.2 |
| 20260831130705 | 61 | 167 | 0.0 | 0.0 | 0.00 | 0.00 | 0.00 | 95 | 1020.3 |
| 20260831130204 | 61 | 167 | 0.0 | 0.0 | 0.00 | 0.00 | 0.00 | 95 | 1020.3 |
| 20260831125704 | 60 | 167 | 0.0 | 0.0 | 0.00 | 0.00 | 0.00 | 96 | 1020.3 |
| 20260831123704 | 60 | 168 | 0.0 | 0.9 | 0.00 | 0.00 | 0.00 | 98 | 1020.3 |
| 20260831123205 | 60 | 167 | 0.0 | 0.0 | 0.00 | 0.00 | 0.00 | 98 | 1020.3 |
| 20260831122704 | 59 | 167 | 0.0 | 0.0 | 0.00 | 0.00 | 0.00 | 98 | 1020.3 |
| 20260831120704 | 58 | 168 | 0.0 | 0.0 | 0.00 | 0.00 | 0.00 | 98 | 1020.2 |
| 20260831115704 | 58 | 168 | 0.0 | 0.0 | 0.00 | 0.00 | 0.00 | 97 | 1020.0 |
| 20260831115204 | 57 | 167 | 0.0 | 0.0 | 0.00 | 0.00 | 0.00 | 97 | 1019.9 |
| 20260831114205 | 57 | 168 | 0.0 | 0.0 | 0.00 | 0.00 | 0.00 | 96 | 1019.8 |
| 20260831111204 | 57 | 167 | 0.0 | 0.0 | 0.00 | 0.00 | 0.00 | 95 | 1019.7 |
| 20260831110705 | 57 | 167 | 0.0 | 0.0 | 0.00 | 0.00 | 0.00 | 95 | 1019.7 |
| 20260831110205 | 57 | 167 | 0.0 | 0.0 | 0.00 | 0.00 | 0.00 | 95 | 1019.8 |
| 20260831105204 | 57 | 167 | 0.0 | 0.0 | 0.00 | 0.00 | 0.00 | 94 | 1019.7 |
| 20260831104204 | 57 | 167 | 0.0 | 0.0 | 0.00 | 0.00 | 0.00 | 94 | 1019.6 |
| 20260831102205 | 57 | 167 | 0.0 | 0.0 | 0.00 | 0.00 | 0.00 | 94 | 1019.5 |
| 20260831101704 | 57 | 167 | 0.0 | 0.0 | 0.00 | 0.00 | 0.00 | 94 | 1019.5 |
| 20260831100704 | 58 | 167 | 0.0 | 0.0 | 0.00 | 0.00 | 0.00 | 94 | 1019.4 |
| 20260831100205 | 58 | 167 | 0.0 | 0.0 | 0.00 | 0.00 | 0.00 | 94 | 1019.3 |
| 20260831094704 | 58 | 167 | 0.0 | 0.0 | 0.00 | 0.00 | 0.00 | 94 | 1019.0 |
| 20260831093705 | 58 | 167 | 0.0 | 0.0 | 0.00 | 0.00 | 0.00 | 94 | 1018.9 |
| 20260831092704 | 58 | 167 | 0.0 | 0.0 | 0.00 | 0.00 | 0.00 | 94 | 1018.9 |
| 20260831092204 | 59 | 167 | 0.0 | 0.0 | 0.00 | 0.00 | 0.00 | 94 | 1018.8 |
| 20260831091704 | 59 | 167 | 0.0 | 0.0 | 0.00 | 0.00 | 0.00 | 94 | 1018.7 |
| 20260831091204 | 59 | 167 | 0.0 | 0.0 | 0.00 | 0.00 | 0.00 | 94 | 1018.6 |
| 20260831090704 | 59 | 167 | 0.0 | 0.0 | 0.00 | 0.00 | 0.00 | 94 | 1018.5 |
| 20260831090204 | 59 | 167 | 0.0 | 0.0 | 0.00 | 0.00 | 0.00 | 94 | 1018.5 |
| 20260831085204 | 59 | 167 | 0.0 | 0.0 | 0.00 | 0.00 | 0.00 | 94 | 1018.4 |
| 20260831083704 | 60 | 167 | 0.0 | 0.0 | 0.00 | 0.00 | 0.00 | 94 | 1018.3 |
| 20260831083204 | 60 | 167 | 0.0 | 0.0 | 0.00 | 0.00 | 0.00 | 94 | 1018.3 |
| 20260831082204 | 60 | 167 | 0.0 | 0.0 | 0.00 | 0.00 | 0.00 | 93 | 1018.3 |
| 20260831080704 | 61 | 167 | 0.0 | 0.0 | 0.00 | 0.00 | 0.00 | 93 | 1018.2 |
| 20260831080204 | 61 | 167 | 0.0 | 0.0 | 0.00 | 0.00 | 0.00 | 93 | 1018.1 |
| 20260831075704 | 61 | 167 | 0.0 | 0.0 | 0.00 | 0.00 | 0.00 | 93 | 1018.1 |
| 20260831074704 | 61 | 167 | 0.0 | 0.0 | 0.00 | 0.00 | 0.00 | 93 | 1017.9 |
| 20260831073704 | 62 | 167 | 0.0 | 0.0 | 0.00 | 0.00 | 0.00 | 93 | 1017.8 |
| 20260831072704 | 62 | 167 | 0.0 | 0.0 | 0.00 | 0.00 | 0.00 | 93 | 1017.9 |
| 20260831072204 | 62 | 167 | 0.0 | 0.0 | 0.00 | 0.00 | 0.00 | 93 | 1017.9 |
| 20260831071704 | 62 | 167 | 0.0 | 0.0 | 0.00 | 0.00 | 0.00 | 93 | 1017.8 |
| 20260831063704 | 63 | 167 | 0.0 | 0.0 | 0.00 | 0.00 | 0.00 | 92 | 1017.6 |
| 20260831063204 | 63 | 167 | 0.0 | 0.0 | 0.00 | 0.00 | 0.00 | 92 | 1017.6 |
| 20260831061204 | 64 | 167 | 0.0 | 0.0 | 0.00 | 0.00 | 0.00 | 92 | 1017.4 |
| 20260831055204 | 65 | 167 | 0.0 | 0.0 | 0.00 | 0.00 | 0.00 | 91 | 1017.3 |
| 20260831054704 | 65 | 167 | 0.0 | 0.0 | 0.00 | 0.00 | 0.00 | 91 | 1017.4 |
| 20260831053704 | 65 | 167 | 0.0 | 0.0 | 0.00 | 0.00 | 0.00 | 91 | 1017.3 |
| 20260831051704 | 66 | 167 | 0.0 | 0.0 | 0.00 | 0.00 | 0.00 | 90 | 1017.2 |
| 20260831051204 | 66 | 167 | 0.0 | 0.0 | 0.00 | 0.00 | 0.00 | 90 | 1017.2 |
| 20260831050704 | 66 | 167 | 0.0 | 0.0 | 0.00 | 0.00 | 0.00 | 91 | 1017.2 |
| 20260831045704 | 67 | 167 | 0.0 | 0.0 | 0.00 | 0.00 | 0.00 | 90 | 1017.2 |
| 20260831045204 | 67 | 167 | 0.0 | 0.0 | 0.00 | 0.00 | 0.00 | 90 | 1017.2 |
| 20260831044704 | 67 | 167 | 0.0 | 0.0 | 0.00 | 0.00 | 0.00 | 89 | 1017.0 |
| 20260831044204 | 67 | 167 | 0.0 | 0.0 | 0.00 | 0.00 | 0.00 | 89 | 1016.8 |
| 20260831043204 | 68 | 167 | 0.0 | 0.0 | 0.00 | 0.00 | 0.00 | 89 | 1016.7 |
| 20260831042704 | 68 | 167 | 0.0 | 0.0 | 0.00 | 0.00 | 0.00 | 89 | 1016.7 |
| 20260831042204 | 68 | 167 | 0.0 | 0.0 | 0.00 | 0.00 | 0.00 | 89 | 1016.6 |
| 20260831041203 | 68 | 167 | 0.0 | 0.0 | 0.00 | 0.00 | 0.00 | 88 | 1016.6 |
| 20260831040204 | 69 | 167 | 0.0 | 0.0 | 0.00 | 0.00 | 0.00 | 88 | 1016.5 |
| 20260831035704 | 69 | 167 | 0.0 | 0.0 | 0.00 | 0.00 | 0.00 | 89 | 1016.6 |
| 20260831034204 | 69 | 167 | 0.0 | 0.0 | 0.00 | 0.00 | 0.00 | 88 | 1016.6 |
| 20260831032703 | 69 | 167 | 0.0 | 0.0 | 0.00 | 0.00 | 0.00 | 88 | 1016.7 |
| 20260831030204 | 70 | 167 | 0.0 | 0.0 | 0.00 | 0.00 | 0.00 | 89 | 1016.6 |
| 20260831025204 | 70 | 167 | 0.0 | 0.0 | 0.00 | 0.00 | 0.00 | 89 | 1016.6 |
| 20260831024204 | 70 | 167 | 0.0 | 0.0 | 0.00 | 0.00 | 0.00 | 89 | 1016.5 |
| 20260831022203 | 70 | 168 | 0.0 | 0.0 | 0.00 | 0.00 | 0.00 | 90 | 1016.5 |
| 20260831021704 | 70 | 169 | 0.0 | 0.0 | 0.00 | 0.00 | 0.00 | 90 | 1016.4 |
| 20260831021204 | 70 | 169 | 0.0 | 0.9 | 0.00 | 0.00 | 0.00 | 89 | 1016.4 |
| 20260831020204 | 70 | 169 | 0.0 | 0.0 | 0.00 | 0.00 | 0.00 | 89 | 1016.4 |
| 20260831015704 | 70 | 169 | 0.0 | 0.0 | 0.00 | 0.00 | 0.00 | 89 | 1016.4 |
| 20260831012204 | 70 | 169 | 0.0 | 0.0 | 0.00 | 0.00 | 0.00 | 88 | 1016.0 |
| 20260831011204 | 71 | 169 | 0.0 | 0.0 | 0.00 | 0.00 | 0.00 | 86 | 1015.9 |
| 20260831010204 | 71 | 169 | 0.0 | 0.0 | 0.00 | 0.00 | 0.00 | 86 | 1015.8 |
| 20260831005204 | 71 | 169 | 0.0 | 0.0 | 0.00 | 0.00 | 0.00 | 86 | 1015.8 |
| 20260831004203 | 71 | 169 | 0.0 | 0.0 | 0.00 | 0.00 | 0.00 | 84 | 1015.5 |
| 20260831003704 | 71 | 169 | 0.0 | 0.0 | 0.00 | 0.00 | 0.00 | 84 | 1015.5 |
| 20260831003204 | 71 | 169 | 0.0 | 0.0 | 0.00 | 0.00 | 0.00 | 84 | 1015.5 |
| 20260831000204 | 72 | 169 | 0.0 | 0.0 | 0.00 | 0.00 | 0.00 | 84 | 1015.2 |
| 20260830234704 | 72 | 169 | 0.0 | 0.0 | 0.00 | 0.00 | 0.00 | 84 | 1015.0 |
| 20260830233204 | 73 | 169 | 0.0 | 0.0 | 0.00 | 0.00 | 0.00 | 83 | 1014.9 |
| 20260830232704 | 73 | 169 | 0.0 | 0.0 | 0.00 | 0.00 | 0.00 | 83 | 1014.9 |
| 20260830231704 | 73 | 169 | 0.0 | 0.0 | 0.00 | 0.00 | 0.00 | 81 | 1015.0 |
| 20260830231204 | 73 | 169 | 0.0 | 0.0 | 0.00 | 0.00 | 0.00 | 81 | 1015.0 |
| 20260830230204 | 73 | 169 | 0.0 | 0.0 | 0.00 | 0.00 | 0.00 | 79 | 1015.0 |
| 20260830225703 | 73 | 169 | 0.0 | 0.0 | 0.00 | 0.00 | 0.00 | 79 | 1015.1 |
| 20260830224204 | 74 | 169 | 0.0 | 0.0 | 0.00 | 0.00 | 0.00 | 80 | 1015.3 |
| 20260830223704 | 74 | 169 | 0.0 | 0.0 | 0.00 | 0.00 | 0.00 | 80 | 1015.2 |
| 20260830223204 | 74 | 169 | 0.0 | 0.0 | 0.00 | 0.00 | 0.00 | 81 | 1015.3 |
| 20260830222703 | 74 | 169 | 0.0 | 0.0 | 0.00 | 0.00 | 0.00 | 80 | 1015.3 |
| 20260830221703 | 74 | 169 | 0.0 | 0.0 | 0.00 | 0.00 | 0.00 | 80 | 1015.4 |
| 20260830221204 | 74 | 169 | 0.0 | 0.0 | 0.00 | 0.00 | 0.00 | 79 | 1015.5 |
| 20260830215704 | 75 | 169 | 0.0 | 0.0 | 0.00 | 0.00 | 0.00 | 79 | 1015.4 |
| 20260830215204 | 75 | 169 | 0.0 | 1.7 | 0.00 | 0.00 | 0.00 | 79 | 1015.4 |
| 20260830213704 | 75 | 169 | 0.0 | 0.0 | 0.00 | 0.00 | 0.00 | 78 | 1015.4 |
| 20260830212204 | 76 | 169 | 0.0 | 0.0 | 0.00 | 0.00 | 0.00 | 77 | 1015.4 |
| 20260830211703 | 76 | 169 | 0.0 | 1.7 | 0.00 | 0.00 | 0.00 | 76 | 1015.5 |
| 20260830210704 | 76 | 170 | 0.0 | 1.7 | 0.00 | 0.00 | 0.00 | 78 | 1015.6 |
| 20260830210204 | 76 | 170 | 0.0 | 0.9 | 0.00 | 0.00 | 0.00 | 77 | 1015.7 |
| 20260830205704 | 76 | 170 | 0.0 | 0.9 | 0.00 | 0.00 | 0.00 | 77 | 1015.6 |
| 20260830204704 | 76 | 170 | 0.0 | 0.9 | 0.00 | 0.00 | 0.00 | 77 | 1015.6 |
| 20260830204204 | 76 | 170 | 0.0 | 0.9 | 0.00 | 0.00 | 0.00 | 78 | 1015.6 |
| 20260830202704 | 76 | 63 | 0.0 | 1.7 | 0.00 | 0.00 | 0.00 | 79 | 1015.7 |
| 20260830202204 | 76 | 63 | 0.0 | 0.9 | 0.00 | 0.00 | 0.00 | 78 | 1015.8 |
| 20260830201703 | 76 | 63 | 0.0 | 0.9 | 0.00 | 0.00 | 0.00 | 78 | 1015.8 |
| 20260830201204 | 75 | 62 | 0.0 | 0.9 | 0.00 | 0.00 | 0.00 | 78 | 1015.9 |
| 20260830195204 | 75 | 316 | 0.0 | 0.0 | 0.00 | 0.00 | 0.00 | 78 | 1015.9 |
| 20260830192704 | 76 | 300 | 0.0 | 0.0 | 0.00 | 0.00 | 0.00 | 77 | 1016.4 |
| 20260830191704 | 77 | 300 | 0.0 | 0.0 | 0.00 | 0.00 | 0.00 | 75 | 1016.6 |
| 20260830191204 | 77 | 300 | 0.0 | 0.0 | 0.00 | 0.00 | 0.00 | 74 | 1016.6 |
| 20260830190704 | 78 | 300 | 0.0 | 0.0 | 0.00 | 0.00 | 0.00 | 74 | 1016.6 |
| 20260830185204 | 78 | 300 | 0.0 | 0.0 | 0.00 | 0.00 | 0.00 | 69 | 1016.7 |
| 20260830184704 | 78 | 300 | 0.0 | 0.0 | 0.00 | 0.00 | 0.00 | 72 | 1016.8 |
| 20260830184204 | 78 | 300 | 0.0 | 0.0 | 0.00 | 0.00 | 0.00 | 73 | 1016.8 |
| 20260830183204 | 78 | 355 | 0.0 | 2.6 | 0.00 | 0.00 | 0.00 | 71 | 1016.9 |
| 20260830180203 | 78 | 26 | 0.0 | 1.7 | 0.00 | 0.00 | 0.00 | 73 | 1017.3 |
| 20260830175704 | 78 | 55 | 0.0 | 0.9 | 0.00 | 0.00 | 0.00 | 71 | 1017.5 |
| 20260830174703 | 78 | 118 | 0.0 | 0.9 | 0.00 | 0.00 | 0.00 | 70 | 1017.7 |
| 20260830173704 | 78 | 252 | 0.9 | 1.7 | 0.00 | 0.00 | 0.00 | 69 | 1017.6 |
| 20260830171204 | 77 | 339 | 0.9 | 2.6 | 0.00 | 0.00 | 0.00 | 71 | 1017.7 |
| 20260830170703 | 77 | 160 | 0.9 | 2.6 | 0.00 | 0.00 | 0.00 | 68 | 1017.7 |
| 20260830165203 | 76 | 265 | 1.7 | 6.1 | 0.00 | 0.00 | 0.00 | 67 | 1017.9 |
| 20260830162703 | 76 | 270 | 0.9 | 2.6 | 0.00 | 0.00 | 0.00 | 72 | 1018.2 |
| 20260830162204 | 76 | 30 | 0.0 | 2.6 | 0.00 | 0.00 | 0.00 | 70 | 1018.2 |
| 20260830161703 | 76 | 296 | 0.0 | 1.7 | 0.00 | 0.00 | 0.00 | 71 | 1018.3 |
| 20260830160704 | 76 | 304 | 0.0 | 1.7 | 0.00 | 0.00 | 0.00 | 75 | 1018.3 |
| 20260830155204 | 76 | 67 | 0.9 | 2.6 | 0.00 | 0.00 | 0.00 | 71 | 1018.4 |
| 20260830154704 | 76 | 265 | 0.0 | 2.6 | 0.00 | 0.00 | 0.00 | 71 | 1018.4 |
| 20260830154204 | 76 | 195 | 0.9 | 4.3 | 0.00 | 0.00 | 0.00 | 74 | 1018.3 |
| 20260830153704 | 76 | 217 | 0.9 | 2.6 | 0.00 | 0.00 | 0.00 | 71 | 1018.3 |
| 20260830153204 | 76 | 233 | 0.9 | 2.6 | 0.00 | 0.00 | 0.00 | 73 | 1018.4 |
| 20260830152703 | 77 | 49 | 0.0 | 0.9 | 0.00 | 0.00 | 0.00 | 76 | 1018.4 |
| 20260830151703 | 76 | 41 | 0.0 | 0.9 | 0.00 | 0.00 | 0.00 | 75 | 1018.5 |
| 20260830150703 | 76 | 298 | 0.0 | 2.6 | 0.00 | 0.00 | 0.00 | 74 | 1018.6 |
| 20260830145703 | 76 | 153 | 0.9 | 4.3 | 0.00 | 0.00 | 0.00 | 74 | 1018.6 |
| 20260830144203 | 74 | 268 | 1.7 | 7.0 | 0.00 | 0.00 | 0.00 | 74 | 1018.6 |
| 20260830143703 | 73 | 246 | 0.9 | 4.3 | 0.00 | 0.00 | 0.00 | 81 | 1018.6 |
| 20260830142704 | 71 | 313 | 0.0 | 0.9 | 0.00 | 0.00 | 0.00 | 82 | 1018.6 |
| 20260830142203 | 71 | 311 | 0.0 | 0.9 | 0.00 | 0.00 | 0.00 | 83 | 1018.7 |